Find Starlink 36425

NORAD ID: 67467 Int'l Des: 2026-008 Owner: SPXS Country: US Constellation: starlink operational
LEOCIRCULAR

リアルタイム位置

3D地球を読み込み中...

Starlink 36425について

説明を読み込み中...

次回通過

Passes for default location (London). Set your location on the main map for personalized predictions.

高度履歴

Loading altitude history...

軌道要素

1 67467U 26008Y 26106.96973340 .00013903 00000-0 51366-3 0 9992
2 67467 43.0079 349.3062 0000600 287.9233 72.1553 15.27589690 15429
Epoch: Apr 16, 2026 • Age: 4 hours

現在のステータス

高度 483.0 km
速度 7.63 km/s
衛星直下点 -0.87°S, 83.99°W
打ち上げ日 Jan 14, 2026
運用期間 0.2 years
タイプ internet

技術仕様

分類 Payload
質量 575.00 kg
乾燥質量 530.00 kg
総質量 575.00 kg
長さ 0.30 m
直径 4.10 m
スパン 29.00 m
形状 Box + pan
製造者 SPXS
バスタイプ Starlink V2MO
フェーズステータス In Orbit
所有者/国 SPXS/US

Most Searched